Weather History for KLWT - May, 2013

Change the Weather History Date:

Tuesday, May 28, 2013

  Actual Average Record
Temperature  
Mean Temperature 52 °F 53 °F  
Max Temperature 65 °F 66 °F 93 °F (1919)
Min Temperature 38 °F 41 °F 15 °F (1947)
Degree Days  
Heating Degree Days 13 12  
Month to date heating degree days 380 433  
Since 1 July heating degree days 7793 7940  
Cooling Degree Days 0 0  
Month to date cooling degree days 3 0  
Year to date cooling degree days 3 0  
Moisture  
Dew Point 41 °F    
Average Humidity 65    
Maximum Humidity 93    
Minimum Humidity 37    
Precipitation  
Precipitation 0.00 in 0.12 in 1.32 in (1898)
Month to date precipitation 3.07 2.50  
Year to date precipitation 6.43 5.91  
Snow  
Snow 0.00 in - - ()
Snow Depth 0.00 in    
Sea Level Pressure  
Sea Level Pressure 29.72 in    
Wind  
Wind Speed 5 mph (SSW)    
Max Wind Speed 16 mph    
Max Gust Speed 21 mph    
Visibility 10 miles    
Events      
T = Trace of Precipitation, MM = Missing Value Source: NWS Daily Summary

Daily Weather History Graph

Daily Weather History Graph

Search for Another Location

Airport or City:

Trip Planner

Search our weather history database for the weather conditions in past years. The results will help you decide how hot, cold, wet, or windy it might be!

Date:

Astronomy

May. 28, 2013 Rise Set
Actual Time 5:29 AM MDT 9:01 PM MDT
Civil Twilight 4:50 AM MDT 9:40 PM MDT
Nautical Twilight 4:00 AM MDT 10:31 PM MDT
Astronomical Twilight 2:52 AM MDT 11:39 PM MDT
Moon No Moon Rise 9:27 AM MDT (5/28)
Length of Visible Light 16h 49m
Length of Day
15h 32m
Waning Gibbous, 82% of the Moon is Illuminated
May 28
Waning Gibbous
May 31
Last Quarter
Jun 8
New
Jun 16
First Quarter
Jun 23
Full

Hourly Weather History & Observations

Time (MDT) Temp. Windchill Dew Point Humidity Pressure Visibility Wind Dir Wind Speed Gust Speed Precip Events Conditions
12:54 AM 43.0 °F 37.7 °F 39.0 °F 86% 29.76 in 10.0 mi SW 9.2 mph - N/A   Clear
1:54 AM 43.0 °F 40.3 °F 39.0 °F 86% 29.73 in 10.0 mi SSW 4.6 mph - N/A   Clear
2:54 AM 39.9 °F 36.7 °F 37.9 °F 93% 29.75 in 10.0 mi SSE 4.6 mph - N/A   Clear
3:54 AM 37.9 °F 32.7 °F 36.0 °F 93% 29.74 in 10.0 mi SE 6.9 mph - N/A   Clear
4:54 AM 39.9 °F 36.7 °F 37.9 °F 93% 29.73 in 10.0 mi SE 4.6 mph - N/A   Clear
5:54 AM 41.0 °F 36.4 °F 37.9 °F 89% 29.73 in 10.0 mi South 6.9 mph - N/A   Clear
6:54 AM 43.0 °F 41.3 °F 39.9 °F 89% 29.71 in 10.0 mi SE 3.5 mph - N/A   Clear
7:54 AM 48.9 °F - 43.0 °F 80% 29.70 in 10.0 mi ESE 3.5 mph - N/A   Scattered Clouds
8:54 AM 52.0 °F - 43.0 °F 71% 29.70 in 10.0 mi SW 3.5 mph - N/A   Mostly Cloudy
9:54 AM 53.1 °F - 44.1 °F 71% 29.72 in 10.0 mi WSW 5.8 mph - N/A   Clear
10:54 AM 55.0 °F - 41.0 °F 59% 29.72 in 10.0 mi West 8.1 mph - N/A   Partly Cloudy
11:54 AM 57.9 °F - 39.0 °F 49% 29.71 in 10.0 mi WNW 8.1 mph - N/A   Scattered Clouds
12:54 PM 59.0 °F - 39.0 °F 48% 29.70 in 10.0 mi West 4.6 mph - N/A   Mostly Cloudy
1:54 PM 61.0 °F - 41.0 °F 48% 29.69 in 10.0 mi Variable 4.6 mph - N/A   Clear
2:54 PM 63.0 °F - 39.9 °F 43% 29.68 in 10.0 mi Variable 4.6 mph - N/A   Scattered Clouds
3:54 PM 64.0 °F - 37.9 °F 38% 29.68 in 10.0 mi Variable 4.6 mph - N/A   Mostly Cloudy
4:54 PM 63.0 °F - 42.1 °F 46% 29.68 in 10.0 mi North 8.1 mph - N/A   Overcast
5:54 PM 60.1 °F - 43.0 °F 53% 29.70 in 10.0 mi NNW 5.8 mph - N/A   Overcast
6:54 PM 53.1 °F - 46.0 °F 77% 29.73 in 10.0 mi Variable 5.8 mph - N/A   Scattered Clouds
7:54 PM 51.1 °F - 45.0 °F 80% 29.73 in 10.0 mi NNW 3.5 mph - N/A   Scattered Clouds
8:54 PM 50.0 °F - 46.9 °F 89% 29.74 in 10.0 mi North 4.6 mph - N/A   Mostly Cloudy
9:54 PM 50.0 °F - 44.1 °F 80% 29.74 in 10.0 mi Calm Calm - N/A   Partly Cloudy
10:54 PM 48.0 °F - 45.0 °F 89% 29.74 in 10.0 mi SSW 6.9 mph - N/A   Scattered Clouds
11:54 PM 46.9 °F - 45.0 °F 93% 29.73 in 10.0 mi ESE 3.5 mph - N/A   Mostly Cloudy